Year,Month,Day,Hour,Minute,Value (Times are PST for temperature in C)
2013,03,12,00,00,3.10
2013,03,12,00,01,3.10
2013,03,12,00,02,3.00
2013,03,12,00,03,3.00
2013,03,12,00,04,2.90
2013,03,12,00,05,2.90
2013,03,12,00,06,2.90
2013,03,12,00,07,2.90
2013,03,12,00,08,2.80
2013,03,12,00,09,2.80
2013,03,12,00,10,2.80
2013,03,12,00,11,2.80
2013,03,12,00,12,2.80
2013,03,12,00,13,2.80
2013,03,12,00,14,2.80
2013,03,12,00,15,2.80
2013,03,12,00,16,2.70
2013,03,12,00,17,2.70
2013,03,12,00,18,2.70
2013,03,12,00,19,2.70
2013,03,12,00,20,2.70
2013,03,12,00,21,2.70
2013,03,12,00,22,2.70
2013,03,12,00,23,2.70
2013,03,12,00,24,2.70
2013,03,12,00,25,2.70
2013,03,12,00,26,2.70
2013,03,12,00,27,2.70
2013,03,12,00,28,2.70
2013,03,12,00,29,2.70
2013,03,12,00,30,2.60
2013,03,12,00,31,2.60
2013,03,12,00,32,2.60
2013,03,12,00,33,2.60
2013,03,12,00,34,2.60
2013,03,12,00,35,2.60
2013,03,12,00,36,2.60
2013,03,12,00,37,2.60
2013,03,12,00,38,2.60
2013,03,12,00,39,2.60
2013,03,12,00,40,2.60
2013,03,12,00,41,2.60
2013,03,12,00,42,2.60
2013,03,12,00,43,2.60
2013,03,12,00,44,2.60
2013,03,12,00,45,2.50
2013,03,12,00,46,2.50
2013,03,12,00,47,2.50
2013,03,12,00,48,2.50
2013,03,12,00,49,2.40
2013,03,12,00,50,2.40
2013,03,12,00,51,2.50
2013,03,12,00,52,2.40
2013,03,12,00,53,2.40
2013,03,12,00,54,2.40
2013,03,12,00,55,2.40
2013,03,12,00,56,2.40
2013,03,12,00,57,2.40
2013,03,12,00,58,2.40
2013,03,12,00,59,2.40
2013,03,12,01,00,2.40
2013,03,12,01,01,2.40
2013,03,12,01,02,2.40
2013,03,12,01,03,2.40
2013,03,12,01,04,2.40
2013,03,12,01,05,2.40
2013,03,12,01,06,2.40
2013,03,12,01,07,2.40
2013,03,12,01,08,2.40
2013,03,12,01,09,2.40
2013,03,12,01,10,2.30
2013,03,12,01,11,2.30
2013,03,12,01,12,2.30
2013,03,12,01,13,2.30
2013,03,12,01,14,2.30
2013,03,12,01,15,2.30
2013,03,12,01,16,2.30
2013,03,12,01,17,2.30
2013,03,12,01,18,2.30
2013,03,12,01,19,2.30
2013,03,12,01,20,2.30
2013,03,12,01,21,2.30
2013,03,12,01,22,2.30
2013,03,12,01,23,2.30
2013,03,12,01,24,2.30
2013,03,12,01,25,2.30
2013,03,12,01,26,2.30
2013,03,12,01,27,2.30
2013,03,12,01,28,2.30
2013,03,12,01,29,2.30
2013,03,12,01,30,2.30
2013,03,12,01,31,2.30
2013,03,12,01,32,2.30
2013,03,12,01,33,2.30
2013,03,12,01,34,2.30
2013,03,12,01,35,2.30
2013,03,12,01,36,2.30
2013,03,12,01,37,2.30
2013,03,12,01,38,2.30
2013,03,12,01,39,2.30
2013,03,12,01,40,2.30
2013,03,12,01,41,2.30
2013,03,12,01,42,2.30
2013,03,12,01,43,2.20
2013,03,12,01,44,2.20
2013,03,12,01,45,2.20
2013,03,12,01,46,2.20
2013,03,12,01,47,2.20
2013,03,12,01,48,2.20
2013,03,12,01,49,2.20
2013,03,12,01,50,2.20
2013,03,12,01,51,2.20
2013,03,12,01,52,2.20
2013,03,12,01,53,2.20
2013,03,12,01,54,2.20
2013,03,12,01,55,2.20
2013,03,12,01,56,2.20
2013,03,12,01,57,2.20
2013,03,12,01,58,2.20
2013,03,12,01,59,2.10
2013,03,12,02,00,2.10
2013,03,12,02,01,2.10
2013,03,12,02,02,2.10
2013,03,12,02,03,2.10
2013,03,12,02,04,2.10
2013,03,12,02,05,2.10
2013,03,12,02,06,2.10
2013,03,12,02,07,2.10
2013,03,12,02,08,2.10
2013,03,12,02,09,2.10
2013,03,12,02,10,2.10
2013,03,12,02,11,2.10
2013,03,12,02,12,2.10
2013,03,12,02,13,2.10
2013,03,12,02,14,2.10
2013,03,12,02,15,2.10
2013,03,12,02,16,2.10
2013,03,12,02,17,2.10
2013,03,12,02,18,2.10
2013,03,12,02,19,2.10
2013,03,12,02,20,2.10
2013,03,12,02,21,2.10
2013,03,12,02,22,2.10
2013,03,12,02,23,2.10
2013,03,12,02,24,2.10
2013,03,12,02,25,2.10
2013,03,12,02,26,2.10
2013,03,12,02,27,2.10
2013,03,12,02,28,2.00
2013,03,12,02,29,2.00
2013,03,12,02,30,2.00
2013,03,12,02,31,2.00
2013,03,12,02,32,1.90
2013,03,12,02,33,2.00
2013,03,12,02,34,1.90
2013,03,12,02,35,1.90
2013,03,12,02,36,1.90
2013,03,12,02,37,1.90
2013,03,12,02,38,1.90
2013,03,12,02,39,1.90
2013,03,12,02,40,1.90
2013,03,12,02,41,1.90
2013,03,12,02,42,1.90
2013,03,12,02,43,1.90
2013,03,12,02,44,1.90
2013,03,12,02,45,1.90
2013,03,12,02,46,1.90
2013,03,12,02,47,1.90
2013,03,12,02,48,1.90
2013,03,12,02,49,1.90
2013,03,12,02,50,1.90
2013,03,12,02,51,1.90
2013,03,12,02,52,1.90
2013,03,12,02,53,1.90
2013,03,12,02,54,1.90
2013,03,12,02,55,1.90
2013,03,12,02,56,1.90
2013,03,12,02,57,1.90
2013,03,12,02,58,1.90
2013,03,12,02,59,1.90
2013,03,12,03,00,1.90
2013,03,12,03,01,1.90
2013,03,12,03,02,1.90
2013,03,12,03,03,1.90
2013,03,12,03,04,1.90
2013,03,12,03,05,1.90
2013,03,12,03,06,1.90
2013,03,12,03,07,1.90
2013,03,12,03,08,1.90
2013,03,12,03,09,1.90
2013,03,12,03,10,1.90
2013,03,12,03,11,2.00
2013,03,12,03,12,2.00
2013,03,12,03,13,1.90
2013,03,12,03,14,2.00
2013,03,12,03,15,1.90
2013,03,12,03,16,1.90
2013,03,12,03,17,1.90
2013,03,12,03,18,2.00
2013,03,12,03,19,2.00
2013,03,12,03,20,2.00
2013,03,12,03,21,2.00
2013,03,12,03,22,2.00
2013,03,12,03,23,2.00
2013,03,12,03,24,2.00
2013,03,12,03,25,2.00
2013,03,12,03,26,2.00
2013,03,12,03,27,2.00
2013,03,12,03,28,2.00
2013,03,12,03,29,2.00
2013,03,12,03,30,2.00
2013,03,12,03,31,2.00
2013,03,12,03,32,1.90
2013,03,12,03,33,1.90
2013,03,12,03,34,2.00
2013,03,12,03,35,1.90
2013,03,12,03,36,2.00
2013,03,12,03,37,2.00
2013,03,12,03,38,2.00
2013,03,12,03,39,2.00
2013,03,12,03,40,2.00
2013,03,12,03,41,2.00
2013,03,12,03,42,2.00
2013,03,12,03,43,2.00
2013,03,12,03,44,2.00
2013,03,12,03,45,2.00
2013,03,12,03,46,2.00
2013,03,12,03,47,2.00
2013,03,12,03,48,2.00
2013,03,12,03,49,2.00
2013,03,12,03,50,2.00
2013,03,12,03,51,2.00
2013,03,12,03,52,2.00
2013,03,12,03,53,2.00
2013,03,12,03,54,2.00
2013,03,12,03,55,2.00
2013,03,12,03,56,2.00
2013,03,12,03,57,2.00
2013,03,12,03,58,2.00
2013,03,12,03,59,2.00
2013,03,12,04,00,2.00
2013,03,12,04,01,2.00
2013,03,12,04,02,2.00
2013,03,12,04,03,2.00
2013,03,12,04,04,2.00
2013,03,12,04,05,2.00
2013,03,12,04,06,2.00
2013,03,12,04,07,2.00
2013,03,12,04,08,2.00
2013,03,12,04,09,2.00
2013,03,12,04,10,2.00
2013,03,12,04,11,2.00
2013,03,12,04,12,2.10
2013,03,12,04,13,2.00
2013,03,12,04,14,2.10
2013,03,12,04,15,2.10
2013,03,12,04,16,2.10
2013,03,12,04,17,2.10
2013,03,12,04,18,2.10
2013,03,12,04,19,2.10
2013,03,12,04,20,2.10
2013,03,12,04,21,2.00
2013,03,12,04,22,2.00
2013,03,12,04,23,2.00
2013,03,12,04,24,2.00
2013,03,12,04,25,2.00
2013,03,12,04,26,2.00
2013,03,12,04,27,2.00
2013,03,12,04,28,2.00
2013,03,12,04,29,2.00
2013,03,12,04,30,2.00
2013,03,12,04,31,2.00
2013,03,12,04,32,2.00
2013,03,12,04,33,2.00
2013,03,12,04,34,2.10
2013,03,12,04,35,2.10
2013,03,12,04,36,2.00
2013,03,12,04,37,2.00
2013,03,12,04,38,2.00
2013,03,12,04,39,2.00
2013,03,12,04,40,2.00
2013,03,12,04,41,2.00
2013,03,12,04,42,2.00
2013,03,12,04,43,2.00
2013,03,12,04,44,2.00
2013,03,12,04,45,2.10
2013,03,12,04,46,2.00
2013,03,12,04,47,2.10
2013,03,12,04,48,2.10
2013,03,12,04,49,2.10
2013,03,12,04,50,2.10
2013,03,12,04,51,2.10
2013,03,12,04,52,2.00
2013,03,12,04,53,2.00
2013,03,12,04,54,2.00
2013,03,12,04,55,2.10
2013,03,12,04,56,2.00
2013,03,12,04,57,2.00
2013,03,12,04,58,2.00
2013,03,12,04,59,2.00
2013,03,12,05,00,2.00
2013,03,12,05,01,2.10
2013,03,12,05,02,2.10
2013,03,12,05,03,2.00
2013,03,12,05,04,2.00
2013,03,12,05,05,2.10
2013,03,12,05,06,2.10
2013,03,12,05,07,2.10
2013,03,12,05,08,2.00
2013,03,12,05,09,2.10
2013,03,12,05,10,2.10
2013,03,12,05,11,2.10
2013,03,12,05,12,2.10
2013,03,12,05,13,2.10
2013,03,12,05,14,2.10
2013,03,12,05,15,2.10
2013,03,12,05,16,2.10
2013,03,12,05,17,2.00
2013,03,12,05,18,2.00
2013,03,12,05,19,2.00
2013,03,12,05,20,2.00
2013,03,12,05,21,2.00
2013,03,12,05,22,2.00
2013,03,12,05,23,2.00
2013,03,12,05,24,2.00
2013,03,12,05,25,2.00
2013,03,12,05,26,2.00
2013,03,12,05,27,2.10
2013,03,12,05,28,2.10
2013,03,12,05,29,2.10
2013,03,12,05,30,2.10
2013,03,12,05,31,2.10
2013,03,12,05,32,2.10
2013,03,12,05,33,2.10
2013,03,12,05,34,2.10
2013,03,12,05,35,2.10
2013,03,12,05,36,2.10
2013,03,12,05,37,2.10
2013,03,12,05,38,2.10
2013,03,12,05,39,2.10
2013,03,12,05,40,2.10
2013,03,12,05,41,2.10
2013,03,12,05,42,2.10
2013,03,12,05,43,2.10
2013,03,12,05,44,2.10
2013,03,12,05,45,2.10
2013,03,12,05,46,2.10
2013,03,12,05,47,2.10
2013,03,12,05,48,2.10
2013,03,12,05,49,2.10
2013,03,12,05,50,2.10
2013,03,12,05,51,2.10
2013,03,12,05,52,2.10
2013,03,12,05,53,2.10
2013,03,12,05,54,2.10
2013,03,12,05,55,2.10
2013,03,12,05,56,2.10
2013,03,12,05,57,2.10
2013,03,12,05,58,2.10
2013,03,12,05,59,2.10
2013,03,12,06,00,2.10
2013,03,12,06,01,2.10
2013,03,12,06,02,2.10
2013,03,12,06,03,2.10
2013,03,12,06,04,2.10
2013,03,12,06,05,2.10
2013,03,12,06,06,2.10
2013,03,12,06,07,2.10
2013,03,12,06,08,2.10
2013,03,12,06,09,2.10
2013,03,12,06,10,2.10
2013,03,12,06,11,2.10
2013,03,12,06,12,2.10
2013,03,12,06,13,2.10
2013,03,12,06,14,2.20
2013,03,12,06,15,2.20
2013,03,12,06,16,2.20
2013,03,12,06,17,2.20
2013,03,12,06,18,2.20
2013,03,12,06,19,2.20
2013,03,12,06,20,2.20
2013,03,12,06,21,2.20
2013,03,12,06,22,2.20
2013,03,12,06,23,2.20
2013,03,12,06,24,2.20
2013,03,12,06,25,2.20
2013,03,12,06,26,2.20
2013,03,12,06,27,2.20
2013,03,12,06,28,2.20
2013,03,12,06,29,2.20
2013,03,12,06,30,2.20
2013,03,12,06,31,2.20
2013,03,12,06,32,2.20
2013,03,12,06,33,2.20
2013,03,12,06,34,2.20
2013,03,12,06,35,2.20
2013,03,12,06,36,2.20
2013,03,12,06,37,2.20
2013,03,12,06,38,2.20
2013,03,12,06,39,2.20
2013,03,12,06,40,2.20
2013,03,12,06,41,2.20
2013,03,12,06,42,2.20
2013,03,12,06,43,2.20
2013,03,12,06,44,2.20
2013,03,12,06,45,2.20
2013,03,12,06,46,2.20
2013,03,12,06,47,2.20
2013,03,12,06,48,2.20
2013,03,12,06,49,2.20
2013,03,12,06,50,2.20
2013,03,12,06,51,2.20
2013,03,12,06,52,2.20
2013,03,12,06,53,2.20
2013,03,12,06,54,2.20
2013,03,12,06,55,2.20
2013,03,12,06,56,2.20
2013,03,12,06,57,2.20
2013,03,12,06,58,2.20
2013,03,12,06,59,2.20
2013,03,12,07,00,2.20
2013,03,12,07,01,2.20
2013,03,12,07,02,2.20
2013,03,12,07,03,2.20
2013,03,12,07,04,2.20
2013,03,12,07,05,2.20
2013,03,12,07,06,2.20
2013,03,12,07,07,2.20
2013,03,12,07,08,2.20
2013,03,12,07,09,2.20
2013,03,12,07,10,2.20
2013,03,12,07,11,2.20
2013,03,12,07,12,2.20
2013,03,12,07,13,2.20
2013,03,12,07,14,2.20
2013,03,12,07,15,2.20
2013,03,12,07,16,2.20
2013,03,12,07,17,2.20
2013,03,12,07,18,2.20
2013,03,12,07,19,2.20
2013,03,12,07,20,2.20
2013,03,12,07,21,2.20
2013,03,12,07,22,2.20
2013,03,12,07,23,2.20
2013,03,12,07,24,2.20
2013,03,12,07,25,2.20
2013,03,12,07,26,2.20
2013,03,12,07,27,2.20
2013,03,12,07,28,2.20
2013,03,12,07,29,2.20
2013,03,12,07,30,2.20
2013,03,12,07,31,2.20
2013,03,12,07,32,2.20
2013,03,12,07,33,2.20
2013,03,12,07,34,2.30
2013,03,12,07,35,2.30
2013,03,12,07,36,2.30
2013,03,12,07,37,2.30
2013,03,12,07,38,2.30
2013,03,12,07,39,2.30
2013,03,12,07,40,2.30
2013,03,12,07,41,2.30
2013,03,12,07,42,2.30
2013,03,12,07,43,2.30
2013,03,12,07,44,2.30
2013,03,12,07,45,2.30
2013,03,12,07,46,2.30
2013,03,12,07,47,2.30
2013,03,12,07,48,2.30
2013,03,12,07,49,2.30
2013,03,12,07,50,2.30
2013,03,12,07,51,2.30
2013,03,12,07,52,2.30
2013,03,12,07,53,2.30
2013,03,12,07,54,2.30
2013,03,12,07,55,2.30
2013,03,12,07,56,2.30
2013,03,12,07,57,2.30
2013,03,12,07,58,2.30
2013,03,12,07,59,2.30
2013,03,12,08,00,2.30
2013,03,12,08,01,2.30
2013,03,12,08,02,2.30
2013,03,12,08,03,2.30
2013,03,12,08,04,2.30
2013,03,12,08,05,2.30
2013,03,12,08,06,2.30
2013,03,12,08,07,2.30
2013,03,12,08,08,2.30
2013,03,12,08,09,2.30
2013,03,12,08,10,2.30
2013,03,12,08,11,2.30
2013,03,12,08,12,2.30
2013,03,12,08,13,2.30
2013,03,12,08,14,2.30
2013,03,12,08,15,2.30
2013,03,12,08,16,2.30
2013,03,12,08,17,2.30
2013,03,12,08,18,2.30
2013,03,12,08,19,2.30
2013,03,12,08,20,2.30
2013,03,12,08,21,2.30
2013,03,12,08,22,2.30
2013,03,12,08,23,2.30
2013,03,12,08,24,2.30
2013,03,12,08,25,2.40
2013,03,12,08,26,2.40
2013,03,12,08,27,2.40
2013,03,12,08,28,2.40
2013,03,12,08,29,2.40
2013,03,12,08,30,2.40
2013,03,12,08,31,2.40
2013,03,12,08,32,2.40
2013,03,12,08,33,2.40
2013,03,12,08,34,2.40
2013,03,12,08,35,2.40
2013,03,12,08,36,2.40
2013,03,12,08,37,2.50
2013,03,12,08,38,2.50
2013,03,12,08,39,2.50
2013,03,12,08,40,2.50
2013,03,12,08,41,2.50
2013,03,12,08,42,2.50
2013,03,12,08,43,2.50
2013,03,12,08,44,2.50
2013,03,12,08,45,2.50
2013,03,12,08,46,2.60
2013,03,12,08,47,2.60
2013,03,12,08,48,2.60
2013,03,12,08,49,2.60
2013,03,12,08,50,2.60
2013,03,12,08,51,2.60
2013,03,12,08,52,2.60
2013,03,12,08,53,2.60
2013,03,12,08,54,2.70
2013,03,12,08,55,2.70
2013,03,12,08,56,2.70
2013,03,12,08,57,2.70
2013,03,12,08,58,2.70
2013,03,12,08,59,2.70
2013,03,12,09,00,2.70
2013,03,12,09,01,2.70
2013,03,12,09,02,2.70
2013,03,12,09,03,2.70
2013,03,12,09,04,2.70
2013,03,12,09,05,2.70
2013,03,12,09,06,2.70
2013,03,12,09,07,2.70
2013,03,12,09,08,2.70
2013,03,12,09,09,2.70
2013,03,12,09,10,2.70
2013,03,12,09,11,2.80
2013,03,12,09,12,2.70
2013,03,12,09,13,2.80
2013,03,12,09,14,2.80
2013,03,12,09,15,2.80
2013,03,12,09,16,2.80
2013,03,12,09,17,2.80
2013,03,12,09,18,2.80
2013,03,12,09,19,2.80
2013,03,12,09,20,2.80
2013,03,12,09,21,2.80
2013,03,12,09,22,2.80
2013,03,12,09,23,2.80
2013,03,12,09,24,2.80
2013,03,12,09,25,2.90
2013,03,12,09,26,2.90
2013,03,12,09,27,2.90
2013,03,12,09,28,2.90
2013,03,12,09,29,2.90
2013,03,12,09,30,2.90
2013,03,12,09,31,2.90
2013,03,12,09,32,3.00
2013,03,12,09,33,3.00
2013,03,12,09,34,3.00
2013,03,12,09,35,3.00
2013,03,12,09,36,3.10
2013,03,12,09,37,3.10
2013,03,12,09,38,3.10
2013,03,12,09,39,3.10
2013,03,12,09,40,3.10
2013,03,12,09,41,3.10
2013,03,12,09,42,3.10
2013,03,12,09,43,3.10
2013,03,12,09,44,3.20
2013,03,12,09,45,3.20
2013,03,12,09,46,3.20
2013,03,12,09,47,3.20
2013,03,12,09,48,3.20
2013,03,12,09,49,3.20
2013,03,12,09,50,3.20
2013,03,12,09,51,3.20
2013,03,12,09,52,3.20
2013,03,12,09,53,3.30
2013,03,12,09,54,3.30
2013,03,12,09,55,3.30
2013,03,12,09,56,3.30
2013,03,12,09,57,3.30
2013,03,12,09,58,3.30
2013,03,12,09,59,3.30
2013,03,12,10,00,3.30
2013,03,12,10,01,3.30
2013,03,12,10,02,3.30
2013,03,12,10,03,3.30
2013,03,12,10,04,3.30
2013,03,12,10,05,3.30
2013,03,12,10,06,3.30
2013,03,12,10,07,3.30
2013,03,12,10,08,3.40
2013,03,12,10,09,3.40
2013,03,12,10,10,3.40
2013,03,12,10,11,3.40
2013,03,12,10,12,3.40
2013,03,12,10,13,3.40
2013,03,12,10,14,3.40
2013,03,12,10,15,3.40
2013,03,12,10,16,3.40
2013,03,12,10,17,3.40
2013,03,12,10,18,3.40
2013,03,12,10,19,3.50
2013,03,12,10,20,3.50
2013,03,12,10,21,3.60
2013,03,12,10,22,3.60
2013,03,12,10,23,3.60
2013,03,12,10,24,3.60
2013,03,12,10,25,3.60
2013,03,12,10,26,3.60
2013,03,12,10,27,3.60
2013,03,12,10,28,3.60
2013,03,12,10,29,3.70
2013,03,12,10,30,3.70
2013,03,12,10,31,3.70
2013,03,12,10,32,3.70
2013,03,12,10,33,3.70
2013,03,12,10,34,3.70
2013,03,12,10,35,3.70
2013,03,12,10,36,3.70
2013,03,12,10,37,3.70
2013,03,12,10,38,3.80
2013,03,12,10,39,3.80
2013,03,12,10,40,3.80
2013,03,12,10,41,3.80
2013,03,12,10,42,3.80
2013,03,12,10,43,3.80
2013,03,12,10,44,3.80
2013,03,12,10,45,3.80
2013,03,12,10,46,3.80
2013,03,12,10,47,3.90
2013,03,12,10,48,3.90
2013,03,12,10,49,3.90
2013,03,12,10,50,3.90
2013,03,12,10,51,3.90
2013,03,12,10,52,3.90
2013,03,12,10,53,3.90
2013,03,12,10,54,4.00
2013,03,12,10,55,4.10
2013,03,12,10,56,4.10
2013,03,12,10,57,4.10
2013,03,12,10,58,4.20
2013,03,12,10,59,4.20
2013,03,12,11,00,4.20
2013,03,12,11,01,4.20
2013,03,12,11,02,4.20
2013,03,12,11,03,4.30
2013,03,12,11,04,4.30
2013,03,12,11,05,4.30
2013,03,12,11,06,4.30
2013,03,12,11,07,4.30
2013,03,12,11,08,4.30
2013,03,12,11,09,4.40
2013,03,12,11,10,4.40
2013,03,12,11,11,4.40
2013,03,12,11,12,4.50
2013,03,12,11,13,4.60
2013,03,12,11,14,4.60
2013,03,12,11,15,4.60
2013,03,12,11,16,4.60
2013,03,12,11,17,4.60
2013,03,12,11,18,4.60
2013,03,12,11,19,4.70
2013,03,12,11,20,4.70
2013,03,12,11,21,4.70
2013,03,12,11,22,4.70
2013,03,12,11,23,4.80
2013,03,12,11,24,4.80
2013,03,12,11,25,4.90
2013,03,12,11,26,4.90
2013,03,12,11,27,4.90
2013,03,12,11,28,5.10
2013,03,12,11,29,5.10
2013,03,12,11,30,5.20
2013,03,12,11,31,5.30
2013,03,12,11,32,5.30
2013,03,12,11,33,5.30
2013,03,12,11,34,5.40
2013,03,12,11,35,5.40
2013,03,12,11,36,5.40
2013,03,12,11,37,5.40
2013,03,12,11,38,5.40
2013,03,12,11,39,5.50
2013,03,12,11,40,5.50
2013,03,12,11,41,5.60
2013,03,12,11,42,5.60
2013,03,12,11,43,5.60
2013,03,12,11,44,5.60
2013,03,12,11,45,5.70
2013,03,12,11,46,5.70
2013,03,12,11,47,5.70
2013,03,12,11,48,5.70
2013,03,12,11,49,5.70
2013,03,12,11,50,5.80
2013,03,12,11,51,5.80
2013,03,12,11,52,5.80
2013,03,12,11,53,5.80
2013,03,12,11,54,5.90
2013,03,12,11,55,5.90
2013,03,12,11,56,5.90
2013,03,12,11,57,5.90
2013,03,12,11,58,6.00
2013,03,12,11,59,6.00
2013,03,12,12,00,6.10
2013,03,12,12,01,6.10
2013,03,12,12,02,6.10
2013,03,12,12,03,6.20
2013,03,12,12,04,6.20
2013,03,12,12,05,6.20
2013,03,12,12,06,6.30
2013,03,12,12,07,6.30
2013,03,12,12,08,6.30
2013,03,12,12,09,6.30
2013,03,12,12,10,6.40
2013,03,12,12,11,6.40
2013,03,12,12,12,6.40
2013,03,12,12,13,6.40
2013,03,12,12,14,6.40
2013,03,12,12,15,6.40
2013,03,12,12,16,6.40
2013,03,12,12,17,6.40
2013,03,12,12,18,6.40
2013,03,12,12,19,6.40
2013,03,12,12,20,6.40
2013,03,12,12,21,6.40
2013,03,12,12,22,6.40
2013,03,12,12,23,6.40
2013,03,12,12,24,6.40
2013,03,12,12,25,6.50
2013,03,12,12,26,6.50
2013,03,12,12,27,6.60
2013,03,12,12,28,6.60
2013,03,12,12,29,6.70
2013,03,12,12,30,6.70
2013,03,12,12,31,6.80
2013,03,12,12,32,6.80
2013,03,12,12,33,6.80
2013,03,12,12,34,6.80
2013,03,12,12,35,6.80
2013,03,12,12,36,6.80
2013,03,12,12,37,6.90
2013,03,12,12,38,6.90
2013,03,12,12,39,6.90
2013,03,12,12,40,7.10
2013,03,12,12,41,7.10
2013,03,12,12,42,7.20
2013,03,12,12,43,7.20
2013,03,12,12,44,7.20
2013,03,12,12,45,7.20
2013,03,12,12,46,7.30
2013,03,12,12,47,7.30
2013,03,12,12,48,7.40
2013,03,12,12,49,7.40
2013,03,12,12,50,7.50
2013,03,12,12,51,7.50
2013,03,12,12,52,7.60
2013,03,12,12,53,7.60
2013,03,12,12,54,7.70
2013,03,12,12,55,7.70
2013,03,12,12,56,7.70
2013,03,12,12,57,7.80
2013,03,12,12,58,7.80
2013,03,12,12,59,7.80
2013,03,12,13,00,7.90
2013,03,12,13,01,7.90
2013,03,12,13,02,8.00
2013,03,12,13,03,8.10
2013,03,12,13,04,8.10
2013,03,12,13,05,8.10
2013,03,12,13,06,8.10
2013,03,12,13,07,8.10
2013,03,12,13,08,8.20
2013,03,12,13,09,8.20
2013,03,12,13,10,8.20
2013,03,12,13,11,8.20
2013,03,12,13,12,8.30
2013,03,12,13,13,8.30
2013,03,12,13,14,8.30
2013,03,12,13,17,8.40
2013,03,12,13,18,8.50
2013,03,12,13,19,8.50
2013,03,12,13,20,8.50
2013,03,12,13,21,8.40
2013,03,12,13,22,8.40
2013,03,12,13,23,8.40
2013,03,12,13,24,8.40
2013,03,12,13,25,8.40
2013,03,12,13,26,8.30
2013,03,12,13,27,8.30
2013,03,12,13,28,8.30
2013,03,12,13,29,8.30
2013,03,12,13,30,8.20
2013,03,12,13,31,8.20
2013,03,12,13,32,8.20
2013,03,12,13,33,8.20
2013,03,12,13,34,8.20
2013,03,12,13,35,8.20
2013,03,12,13,36,8.20
2013,03,12,13,37,8.20
2013,03,12,13,38,8.20
2013,03,12,13,39,8.20
2013,03,12,13,40,8.20
2013,03,12,13,41,8.30
2013,03,12,13,42,8.30
2013,03,12,13,43,8.30
2013,03,12,13,44,8.40
2013,03,12,13,45,8.40
2013,03,12,13,46,8.50
2013,03,12,13,47,8.50
2013,03,12,13,48,8.50
2013,03,12,13,49,8.50
2013,03,12,13,50,8.50
2013,03,12,13,51,8.50
2013,03,12,13,52,8.60
2013,03,12,13,53,8.60
2013,03,12,13,54,8.70
2013,03,12,13,55,8.70
2013,03,12,13,56,8.70
2013,03,12,13,57,8.80
2013,03,12,13,58,8.90
2013,03,12,13,59,9.10
2013,03,12,14,00,9.10
2013,03,12,14,01,9.20
2013,03,12,14,02,9.30
2013,03,12,14,03,9.30
2013,03,12,14,04,9.40
2013,03,12,14,05,9.50
2013,03,12,14,06,9.60
2013,03,12,14,07,9.80
2013,03,12,14,08,9.90
2013,03,12,14,09,10.10
2013,03,12,14,10,10.20
2013,03,12,14,11,10.30
2013,03,12,14,12,10.30
2013,03,12,14,13,10.40
2013,03,12,14,14,10.40
2013,03,12,14,15,10.40
2013,03,12,14,16,10.50
2013,03,12,14,17,10.60
2013,03,12,14,18,10.60
2013,03,12,14,19,10.70
2013,03,12,14,20,10.70
2013,03,12,14,21,10.70
2013,03,12,14,22,10.80
2013,03,12,14,23,10.70
2013,03,12,14,24,10.70
2013,03,12,14,25,10.70
2013,03,12,14,26,10.70
2013,03,12,14,27,10.70
2013,03,12,14,28,10.70
2013,03,12,14,29,10.70
2013,03,12,14,30,10.70
2013,03,12,14,31,10.70
2013,03,12,14,32,10.60
2013,03,12,14,33,10.60
2013,03,12,14,34,10.60
2013,03,12,14,35,10.50
2013,03,12,14,36,10.50
2013,03,12,14,37,10.50
2013,03,12,14,38,10.50
2013,03,12,14,39,10.50
2013,03,12,14,40,10.50
2013,03,12,14,41,10.50
2013,03,12,14,42,10.60
2013,03,12,14,43,10.60
2013,03,12,14,44,10.60
2013,03,12,14,45,10.60
2013,03,12,14,46,10.60
2013,03,12,14,47,10.60
2013,03,12,14,48,10.60
2013,03,12,14,49,10.60
2013,03,12,14,50,10.60
2013,03,12,14,51,10.60
2013,03,12,14,52,10.70
2013,03,12,14,53,10.70
2013,03,12,14,54,10.70
2013,03,12,14,55,10.70
2013,03,12,14,56,10.70
2013,03,12,14,57,10.70
2013,03,12,14,58,10.70
2013,03,12,14,59,10.70
2013,03,12,15,00,10.70
2013,03,12,15,01,10.70
2013,03,12,15,02,10.70
2013,03,12,15,03,10.70
2013,03,12,15,04,10.70
2013,03,12,15,05,10.70
2013,03,12,15,06,10.70
2013,03,12,15,07,10.70
2013,03,12,15,08,10.80
2013,03,12,15,09,10.80
2013,03,12,15,10,10.80
2013,03,12,15,11,10.80
2013,03,12,15,12,10.90
2013,03,12,15,13,10.90
2013,03,12,15,14,11.00
2013,03,12,15,15,11.10
2013,03,12,15,16,11.20
2013,03,12,15,17,11.20
2013,03,12,15,18,11.30
2013,03,12,15,19,11.30
2013,03,12,15,20,11.40
2013,03,12,15,21,11.40
2013,03,12,15,22,11.40
2013,03,12,15,23,11.50
2013,03,12,15,24,11.60
2013,03,12,15,25,11.60
2013,03,12,15,26,11.70
2013,03,12,15,27,11.70
2013,03,12,15,28,11.80
2013,03,12,15,29,11.80
2013,03,12,15,30,11.80
2013,03,12,15,31,11.80
2013,03,12,15,32,11.80
2013,03,12,15,33,11.80
2013,03,12,15,34,11.80
2013,03,12,15,35,11.80
2013,03,12,15,36,11.80
2013,03,12,15,37,11.80
2013,03,12,15,38,11.80
2013,03,12,15,39,11.80
2013,03,12,15,40,11.90
2013,03,12,15,41,11.90
2013,03,12,15,42,12.00
2013,03,12,15,43,12.10
2013,03,12,15,44,12.10
2013,03,12,15,45,12.20
2013,03,12,15,46,12.30
2013,03,12,15,47,12.30
2013,03,12,15,48,12.30
2013,03,12,15,49,12.40
2013,03,12,15,50,12.40
2013,03,12,15,51,12.30
2013,03,12,15,52,12.20
2013,03,12,15,53,12.20
2013,03,12,15,54,12.10
2013,03,12,15,55,12.00
2013,03,12,15,56,11.90
2013,03,12,15,57,11.80
2013,03,12,15,58,11.80
2013,03,12,15,59,11.80
2013,03,12,16,00,11.70
2013,03,12,16,01,11.70
2013,03,12,16,02,11.70
2013,03,12,16,03,11.70
2013,03,12,16,04,11.60
2013,03,12,16,05,11.60
2013,03,12,16,06,11.60
2013,03,12,16,07,11.60
2013,03,12,16,08,11.60
2013,03,12,16,09,11.50
2013,03,12,16,10,11.50
2013,03,12,16,11,11.60
2013,03,12,16,12,11.60
2013,03,12,16,13,11.60
2013,03,12,16,14,11.60
2013,03,12,16,15,11.70
2013,03,12,16,16,11.70
2013,03,12,16,17,11.60
2013,03,12,16,18,11.60
2013,03,12,16,19,11.60
2013,03,12,16,20,11.60
2013,03,12,16,21,11.60
2013,03,12,16,22,11.50
2013,03,12,16,23,11.50
2013,03,12,16,24,11.50
2013,03,12,16,25,11.50
2013,03,12,16,26,11.50
2013,03,12,16,27,11.40
2013,03,12,16,28,11.40
2013,03,12,16,29,11.40
2013,03,12,16,30,11.40
2013,03,12,16,31,11.30
2013,03,12,16,32,11.30
2013,03,12,16,33,11.30
2013,03,12,16,34,11.30
2013,03,12,16,35,11.30
2013,03,12,16,36,11.30
2013,03,12,16,37,11.20
2013,03,12,16,38,11.20
2013,03,12,16,39,11.20
2013,03,12,16,40,11.30
2013,03,12,16,41,11.30
2013,03,12,16,42,11.30
2013,03,12,16,43,11.30
2013,03,12,16,44,11.30
2013,03,12,16,45,11.30
2013,03,12,16,46,11.30
2013,03,12,16,47,11.30
2013,03,12,16,48,11.30
2013,03,12,16,49,11.30
2013,03,12,16,50,11.30
2013,03,12,16,51,11.30
2013,03,12,16,52,11.20
2013,03,12,16,53,11.20
2013,03,12,16,54,11.10
2013,03,12,16,55,11.10
2013,03,12,16,56,11.10
2013,03,12,16,57,11.10
2013,03,12,16,58,11.10
2013,03,12,16,59,11.10
2013,03,12,17,00,11.10
2013,03,12,17,01,11.10
2013,03,12,17,02,11.10
2013,03,12,17,03,11.10
2013,03,12,17,04,11.10
2013,03,12,17,05,11.10
2013,03,12,17,06,11.00
2013,03,12,17,07,11.00
2013,03,12,17,08,11.00
2013,03,12,17,09,10.90
2013,03,12,17,10,10.90
2013,03,12,17,11,10.90
2013,03,12,17,12,10.90
2013,03,12,17,13,10.90
2013,03,12,17,14,10.80
2013,03,12,17,15,10.80
2013,03,12,17,16,10.80
2013,03,12,17,17,10.80
2013,03,12,17,18,10.80
2013,03,12,17,19,10.80
2013,03,12,17,20,10.80
2013,03,12,17,21,10.90
2013,03,12,17,22,10.90
2013,03,12,17,23,10.80
2013,03,12,17,24,10.80
2013,03,12,17,25,10.80
2013,03,12,17,26,10.80
2013,03,12,17,27,10.80
2013,03,12,17,28,10.80
2013,03,12,17,29,10.80
2013,03,12,17,30,10.80
2013,03,12,17,31,10.80
2013,03,12,17,32,10.80
2013,03,12,17,33,10.80
2013,03,12,17,34,10.80
2013,03,12,17,35,10.80
2013,03,12,17,36,10.80
2013,03,12,17,37,10.80
2013,03,12,17,38,10.80
2013,03,12,17,39,10.80
2013,03,12,17,40,10.80
2013,03,12,17,41,10.80
2013,03,12,17,42,10.80
2013,03,12,17,43,10.80
2013,03,12,17,44,10.80
2013,03,12,17,45,10.80
2013,03,12,17,46,10.70
2013,03,12,17,47,10.70
2013,03,12,17,48,10.70
2013,03,12,17,49,10.70
2013,03,12,17,50,10.70
2013,03,12,17,51,10.70
2013,03,12,17,52,10.70
2013,03,12,17,53,10.70
2013,03,12,17,54,10.70
2013,03,12,17,55,10.70
2013,03,12,17,56,10.70
2013,03,12,17,57,10.70
2013,03,12,17,58,10.70